Cortez, CO

3:48 PM MDT on September 30, 2016 (GMT -0600)
Cortez Municipal

Weather History for KCEZ - October, 2011

Change the Weather History Date:

Saturday, October 15, 2011

  Actual Average Record
Temperature  
Mean Temperature 56 °F 49 °F  
Max Temperature 78 °F 66 °F 80 °F (2015)
Min Temperature 35 °F 32 °F 24 °F (1997)
Degree Days  
Heating Degree Days 8 16  
Month to date heating degree days 202  
Since 1 July heating degree days 374  
Cooling Degree Days 0 0  
Month to date cooling degree days 0  
Year to date cooling degree days 426  
Growing Degree Days 6 (Base 50)    
Moisture  
Dew Point 31 °F    
Average Humidity 50    
Maximum Humidity 82    
Minimum Humidity 15    
Precipitation  
Precipitation 0.00 in 0.04 in 0.00 in (2016)
Month to date precipitation 0.76  
Year to date precipitation 10.98  
Sea Level Pressure  
Sea Level Pressure 30.09 in    
Wind  
Wind Speed 4 mph (SE)    
Max Wind Speed 13 mph    
Max Gust Speed -    
Visibility 10 miles    
Events      
T = Trace of Precipitation, MM = Missing Value Source: NWS Daily Summary

Daily Weather History Graph

Daily Weather History Graph

Search for Another Location

Airport or City:

Trip Planner

Search our weather history database for the weather conditions in past years. The results will help you decide how hot, cold, wet, or windy it might be!

Date:

Astronomy

Oct. 15, 2011 Rise Set
Actual Time 7:22 AM MDT 6:37 PM MDT
Civil Twilight 6:55 AM MDT 7:03 PM MDT
Nautical Twilight 6:25 AM MDT 7:34 PM MDT
Astronomical Twilight 5:55 AM MDT 8:04 PM MDT
Moon 8:42 PM MDT (10/15) 10:44 AM MDT (10/15)
Length of Visible Light 12h 08m
Length of Day
11h 15m
Waning Gibbous, 88% of the Moon is Illuminated
Oct 15
Waning Gibbous
Oct 19
Last Quarter
Oct 26
New
Nov 2
First Quarter
Nov 10
Full

Hourly Weather History & Observations

Time (MDT) Temp. Windchill Dew Point Humidity Pressure Visibility Wind Dir Wind Speed Gust Speed Precip Events Conditions
12:53 AM 39.9 °F 36.7 °F 32.0 °F 73% 30.08 in 10.0 mi ENE 4.6 mph - N/A   Clear
1:53 AM 39.9 °F 36.7 °F 32.0 °F 73% 30.08 in 10.0 mi East 4.6 mph - N/A   Clear
2:53 AM 35.1 °F - 30.0 °F 82% 30.09 in 10.0 mi Calm Calm - N/A   Clear
3:53 AM 37.0 °F - 32.0 °F 82% 30.08 in 10.0 mi Calm Calm - N/A   Clear
4:53 AM 37.0 °F 34.5 °F 32.0 °F 82% 30.09 in 10.0 mi East 3.5 mph - N/A   Clear
5:53 AM 37.9 °F 33.5 °F 32.0 °F 79% 30.10 in 10.0 mi East 5.8 mph - N/A   Clear
7:53 AM 36.0 °F 33.3 °F 30.9 °F 82% 30.19 in 10.0 mi East 3.5 mph - N/A   Clear
8:53 AM 46.9 °F - 34.0 °F 61% 30.18 in 10.0 mi Calm Calm - N/A   Clear
9:53 AM 55.0 °F - 34.0 °F 45% 30.16 in 10.0 mi Calm Calm - N/A   Clear
10:53 AM 64.0 °F - 34.0 °F 33% 30.13 in 10.0 mi Calm Calm - N/A   Clear
11:53 AM 70.0 °F - 34.0 °F 27% 30.11 in 10.0 mi SSW 6.9 mph - N/A   Clear
12:53 PM 75.0 °F - 30.9 °F 20% 30.08 in 10.0 mi SW 12.7 mph - N/A   Clear
1:53 PM 75.9 °F - 28.0 °F 17% 30.05 in 10.0 mi SW 11.5 mph - N/A   Clear
2:53 PM 77.0 °F - 26.1 °F 15% 30.04 in 10.0 mi SW 9.2 mph - N/A   Clear
3:53 PM 78.1 °F - 27.0 °F 15% 30.02 in 10.0 mi SSW 6.9 mph - N/A   Clear
4:53 PM 77.0 °F - 28.0 °F 17% 30.02 in 10.0 mi SSW 8.1 mph - N/A   Clear
5:53 PM 75.0 °F - 27.0 °F 17% 30.01 in 10.0 mi SW 3.5 mph - N/A   Clear
6:53 PM 57.0 °F - 34.0 °F 42% 30.07 in 10.0 mi South 3.5 mph - N/A   Clear
8:53 PM 50.0 °F - 34.0 °F 54% 30.08 in 10.0 mi East 5.8 mph - N/A   Clear
9:53 PM 46.0 °F 44.8 °F 34.0 °F 63% 30.08 in 10.0 mi ENE 3.5 mph - N/A   Clear
10:53 PM 44.1 °F 40.8 °F 34.0 °F 68% 30.06 in 10.0 mi ENE 5.8 mph - N/A   Clear